Flag for Chad Weather past 2 weeks in Ndjamena, Chad

Now
86 °F

Clear.


Feels Like: 84 °F
Forecast: 76 / 96 °F
Wind: 12 mph from North

Location: Ndjamena

Current Time: Mar 28, 2015 at 3:29:30 AM

Latest Report: Mar 28, 2015 at 3:00 AM


Visibility: 10 mi

Pressure: 29.74 "Hg

Humidity: 29%

Dew point: 50 °F

Location of NdjamenaLocation

Historic Weather in Ndjamena — Graph

°F

Ndjamena temperature yesterday

Maximum temperature yesterday: 108 °F (at 1:00 PM)
Minimum temperature yesterday: 82 °F (at 7:00 AM)
Average temperature yesterday: 97 °F

Past Weeks' High & Low Weather Summary

 TemperatureHumidityPressure
High109 °F (Mar 24, 3:00 PM)59% (Mar 26, 8:00 AM)29.89 "Hg (Mar 26, 8:00 AM)
Low64 °F (Mar 16, 4:00 PM)9% (Mar 22, 1:00 PM)29.62 "Hg (Mar 24, 3:00 PM)
Average91 °F25%29.74 "Hg
* Reported Mar 13 3:00 AM — Mar 28 2:00 AM, Ndjamena, Weather by CustomWeather, © 2015

Note: Actual official high and low records may vary slightly from our data, if they occured in-between our weather recording intervals... More about our weather records

Advertising

Ndjamena weather history for previous 24 hours

 ConditionsComfort  
Time TempWeatherWind HumidityBarometerVisibility
2:00 AM
Sat, Mar 28
88 °FClear.9 mph31%29.74 "Hg10 mi
1:00 AM88 °FClear.7 mph33%29.74 "Hg10 mi
12:00 AM90 °FClear.8 mph33%29.77 "Hg10 mi
11:00 PM
Fri, Mar 27
91 °FClear.9 mph36%29.77 "Hg10 mi
10:00 PM93 °FClear.9 mph34%29.80 "Hg10 mi
9:00 PM93 °FClear.No wind36%29.77 "Hg10 mi
8:00 PM95 °FClear.1 mph34%29.74 "Hg10 mi
7:00 PM99 °FHaze.8 mph29%29.74 "Hg2 mi
6:00 PM100 °FHaze.10 mph27%29.71 "Hg2 mi
5:00 PM104 °FClear.12 mph23%29.71 "Hg4 mi
4:00 PM106 °FClear.13 mph23%29.68 "Hg5 mi
3:00 PM108 °FClear.13 mph19%29.71 "Hg5 mi
2:00 PM108 °FClear.12 mph18%29.71 "Hg5 mi
1:00 PM108 °FClear.9 mph18%29.74 "Hg4 mi
12:00 PM106 °FHaze.9 mph19%29.77 "Hg3 mi
11:00 AM104 °FHaze.13 mph21%29.80 "Hg2 mi
10:00 AM100 °FHaze.12 mph24%29.80 "Hg2 mi
9:00 AM93 °FHaze.2 mph36%29.80 "Hg2 mi
8:00 AM88 °FHaze.5 mph43%29.80 "Hg2 mi
7:00 AM82 °FClear.No wind55%29.77 "Hg5 mi
6:00 AM84 °FClear.No wind55%29.74 "Hg5 mi
Weather by CustomWeather, © 2015

See weather overviewHow to use our weather pages